Location: Goodfare
(55.2420°N, 119.7689°W)
Time: 05:05:41
(UTC+00:00)

ISS - Pass Details

Date: 02 December 2021
Orbit: 413 x 423 km, 51.6° (Epoch: 18 January)

Event Time Altitude Azimuth Distance (km) Brightness Sun altitude
Rises 02:55:23 0° 275° (W) 2,383 1.4 -27.4°
Reaches altitude 10° 02:57:49 10° 259° (WSW) 1,513 0.0 -27.7°
Enters shadow 02:59:13 18° 238° (WSW) 1,135 -1.0 -27.9°
